sat.trackr.live / text

‹ back to catalog

STARLINK-2412

NORAD 48094 · 2021-027C

PAYLOAD ACTIVE UNKNOWN

§ Identity

Operator
Country
US
Launch date
2021-04-07
Launch site
AFETR
Launch vehicle
Mass (kg)
RCS (m²)

Purposes: comms

External: N2YO · Heavens-Above · Gunter

§ Orbital elements

Epoch: 2026-05-24T22:36:21.163968Z

Period
94.08 min
Inclination
53.1565°
Eccentricity
0.0001638
Mean motion
15.30672354 rev/d
Perigee alt
472.7 km
Apogee alt
474.9 km
Semi-major
6,851.9 km
B*
3.1844e-3
RAAN
171.0837°
Arg perigee
95.9267°
Mean anomaly
264.1921°
Rev number
28,419

§ Raw data

STARLINK-24121 48094U 21027C   26144.94191162  .00096593  00000+0  31844-2 0  99902 48094  53.1565 171.0837 0001638  95.9267 264.1921 15.30672354284190

JSON: /api/v1/satellites/48094 · /tle

For live sub-satellite position, see the globe view (requires WebGL).

§ Visibility from observer

Set your observer location to see the next 7 days of passes ≥ 10°. The values pass through the URL so the page stays shareable.

No JS? Fill the form by hand. The geolocation button needs JavaScript.